Boise, ID

6:32 PM MDT on August 24, 2016 (GMT -0600)
Boise Air Term

Weather History for KBOI - August, 2013

Change the Weather History Date:

Monday, August 12, 2013

  Actual Average Record
Temperature  
Mean Temperature 76 °F 76 °F  
Max Temperature 88 °F 91 °F 105 °F (1898)
Min Temperature 63 °F 61 °F 44 °F (1966)
Degree Days  
Heating Degree Days 0 0  
Month to date heating degree days 0 0  
Since 1 June heating degree days 35 72  
Since 1 July heating degree days 0 8  
Cooling Degree Days 11 11  
Month to date cooling degree days 150 141  
Year to date cooling degree days 904 666  
Since 1 June cooling degree days 857 622  
Growing Degree Days 24 (Base 50)    
Moisture  
Dew Point 46 °F    
Average Humidity 40    
Maximum Humidity 56    
Minimum Humidity 23    
Precipitation  
Precipitation 0.00 in 0.01 in 0.43 in (1965)
Month to date precipitation 0.01 0.09  
Year to date precipitation 4.47 7.35  
Snow  
Snow 0.00 in 0.00 in 0.00 in (2006)
Month to date snowfall 0.0 0.0  
Since 1 July snowfall 0.0 0.0  
Snow Depth 0.00 in    
Sea Level Pressure  
Sea Level Pressure 29.86 in    
Wind  
Wind Speed 6 mph (WNW)    
Max Wind Speed 16 mph    
Max Gust Speed 20 mph    
Visibility 9 miles    
Events      
T = Trace of Precipitation, MM = Missing Value Source: NWS Daily Summary

Daily Weather History Graph

Daily Weather History Graph

Search for Another Location

Airport or City:

Trip Planner

Search our weather history database for the weather conditions in past years. The results will help you decide how hot, cold, wet, or windy it might be!

Date:

Astronomy

Aug. 12, 2013 Rise Set
Actual Time 6:46 AM MDT 8:52 PM MDT
Civil Twilight 6:15 AM MDT 9:23 PM MDT
Nautical Twilight 5:36 AM MDT 10:01 PM MDT
Astronomical Twilight 4:54 AM MDT 10:43 PM MDT
Moon 12:55 PM MDT (8/12) 11:34 PM MDT (8/12)
Length of Visible Light 15h 08m
Length of Day
14h 05m
Waxing Crescent, 32% of the Moon is Illuminated
Aug 12
Waxing Crescent
Aug 14
First Quarter
Aug 20
Full
Aug 28
Last Quarter
Sep 5
New

Hourly Weather History & Observations

Time (MDT) Temp. Dew Point Humidity Pressure Visibility Wind Dir Wind Speed Gust Speed Precip Events Conditions
12:53 AM 68.0 °F 36.0 °F 31% 29.83 in 10.0 mi SE 4.6 mph - N/A   Smoke
1:53 AM 69.1 °F 39.0 °F 33% 29.83 in 10.0 mi SSW 4.6 mph - N/A   Smoke
2:53 AM 68.0 °F 45.0 °F 43% 29.84 in 10.0 mi Calm Calm - N/A   Smoke
3:53 AM 64.0 °F 46.0 °F 52% 29.84 in 10.0 mi SW 4.6 mph - N/A   Smoke
4:53 AM 64.9 °F 48.0 °F 54% 29.84 in 10.0 mi SSE 3.5 mph - N/A   Smoke
5:53 AM 64.9 °F 48.9 °F 56% 29.85 in 10.0 mi SW 5.8 mph - N/A   Smoke
6:53 AM 64.0 °F 48.9 °F 58% 29.86 in 10.0 mi WNW 4.6 mph - N/A   Smoke
7:53 AM 66.0 °F 48.9 °F 54% 29.89 in 10.0 mi South 4.6 mph - N/A   Smoke
8:53 AM 70.0 °F 50.0 °F 49% 29.90 in 10.0 mi WSW 3.5 mph - N/A   Smoke
9:53 AM 70.0 °F 51.1 °F 51% 29.91 in 10.0 mi Calm Calm - N/A   Smoke
10:53 AM 73.9 °F 51.1 °F 45% 29.90 in 10.0 mi NNW 4.6 mph - N/A   Smoke
11:53 AM 78.1 °F 52.0 °F 40% 29.91 in 9.0 mi West 4.6 mph - N/A   Smoke
12:53 PM 81.0 °F 48.0 °F 31% 29.91 in 5.0 mi WSW 3.5 mph - N/A   Haze
1:53 PM 84.9 °F 46.0 °F 26% 29.88 in 6.0 mi Calm Calm - N/A   Haze
2:53 PM 87.1 °F 46.0 °F 24% 29.86 in 8.0 mi WNW 9.2 mph - N/A   Smoke
3:53 PM 84.9 °F 46.0 °F 26% 29.86 in 7.0 mi West 4.6 mph - N/A   Smoke
4:53 PM 86.0 °F 46.9 °F 26% 29.83 in 7.0 mi NNW 8.1 mph - N/A   Smoke
5:53 PM 84.9 °F 50.0 °F 30% 29.83 in 7.0 mi North 9.2 mph - N/A   Smoke
6:53 PM 84.9 °F 46.9 °F 27% 29.80 in 8.0 mi NNE 8.1 mph - N/A   Smoke
7:53 PM 84.0 °F 43.0 °F 24% 29.80 in 9.0 mi Calm Calm - N/A   Smoke
8:53 PM 82.0 °F 44.1 °F 26% 29.83 in 10.0 mi NNW 12.7 mph - N/A   Smoke
9:53 PM 80.1 °F 42.1 °F 26% 29.86 in 10.0 mi WNW 9.2 mph - N/A   Smoke
10:53 PM 79.0 °F 39.9 °F 25% 29.85 in 10.0 mi NNW 11.5 mph - N/A   Smoke
11:53 PM 77.0 °F 39.0 °F 25% 29.85 in 10.0 mi NW 9.2 mph - N/A   Smoke